Chippawa, Ontario

3:49 AM EST on December 05, 2016 (GMT -0500)
Saint Catharines-Niagara District

Weather History for CYSN - October, 2013

Change the Weather History Date:

Sunday, October 6, 2013

  Actual Average Record
Temperature  
Mean Temperature 70 °F -  
Max Temperature 80 °F 61 °F 80 °F (2005)
Min Temperature 60 °F 46 °F 33 °F (2003)
Cooling Degree Days 5    
Growing Degree Days 20 (Base 50)    
Moisture  
Dew Point 65 °F    
Average Humidity 88    
Maximum Humidity 100    
Minimum Humidity 65    
Precipitation  
Precipitation 0.00 in - - ()
Sea Level Pressure  
Sea Level Pressure 29.82 in    
Wind  
Wind Speed 4 mph ()    
Max Wind Speed 12 mph    
Max Gust Speed -    
Visibility 10.4 miles    
Events Rain    
Averages and records for this station are not official NWS values.
T = Trace of Precipitation, MM = Missing Value Source: Averaged Metar Reports

Daily Weather History Graph

Daily Weather History Graph

Search for Another Location

Airport or City:

Trip Planner

Search our weather history database for the weather conditions in past years. The results will help you decide how hot, cold, wet, or windy it might be!

Date:

Astronomy

Oct. 06, 2013 Rise Set
Actual Time 7:20 AM EDT 6:48 PM EDT
Civil Twilight 6:51 AM EDT 7:17 PM EDT
Nautical Twilight 6:18 AM EDT 7:49 PM EDT
Astronomical Twilight 5:45 AM EDT 8:23 PM EDT
Moon 9:06 AM EDT (10/6) 7:42 PM EDT (10/6)
Length of Visible Light 12h 25m
Length of Day
11h 28m
Waxing Crescent, 3% of the Moon is Illuminated
Oct 6
Waxing Crescent
Oct 11
First Quarter
Oct 18
Full
Oct 26
Last Quarter
Nov 3
New

Hourly Weather History & Observations

Time (EDT) Temp. Heat Index Dew Point Humidity Pressure Visibility Wind Dir Wind Speed Gust Speed Precip Events Conditions
7:00 AM 60.8 °F - 60.8 °F 100% 29.88 in 8.0 mi East 5.8 mph - N/A Rain Light Rain Showers
7:18 AM 60.8 °F - 60.8 °F 100% 29.89 in 2.0 mi SE 3.5 mph - N/A Rain Light Rain Showers
7:40 AM 60.8 °F - 60.8 °F 100% 29.89 in 4.0 mi East 3.5 mph - N/A Rain Light Rain Showers
8:00 AM 60.8 °F - 60.8 °F 100% 29.88 in 5.0 mi East 5.8 mph - N/A Rain Light Rain Showers
9:00 AM 62.6 °F - 62.6 °F 100% 29.88 in 8.0 mi Calm Calm - N/A   Overcast
9:32 AM 64.4 °F - 64.4 °F 100% 29.88 in 5.0 mi Calm Calm - N/A Rain Light Rain Showers
10:00 AM 64.4 °F - 64.4 °F 100% 29.88 in 7.0 mi NNW 2.3 mph - N/A Rain Light Rain Showers
11:00 AM 66.2 °F - 66.2 °F 100% 29.86 in 6.0 mi NE 2.3 mph - N/A Rain Light Rain Showers
11:36 AM 73.4 °F - 69.8 °F 88% 29.85 in 10.0 mi South 8.1 mph - N/A   Mostly Cloudy
12:00 PM 73.4 °F - 69.8 °F 88% 29.84 in 10.0 mi South 11.5 mph - N/A   Mostly Cloudy
1:00 PM 77.0 °F - 69.8 °F 78% 29.83 in 12.0 mi SSW 10.4 mph - N/A   Mostly Cloudy
2:00 PM 77.0 °F - 68.0 °F 74% 29.79 in 15.0 mi South 9.2 mph - N/A   Overcast
3:00 PM 78.8 °F - 69.8 °F 74% 29.78 in 15.0 mi SSW 8.1 mph - N/A   Overcast
4:00 PM 78.8 °F - 68.0 °F 69% 29.76 in 15.0 mi SSW 8.1 mph - N/A   Overcast
5:00 PM 80.6 °F 83.2 °F 68.0 °F 65% 29.74 in 15.0 mi SSW 9.2 mph - N/A   Overcast
6:00 PM 77.0 °F - 68.0 °F 74% 29.73 in 15.0 mi South 6.9 mph - N/A   Mostly Cloudy
7:00 PM 73.4 °F - 66.2 °F 78% 29.73 in 15.0 mi South 4.6 mph - N/A   Overcast
8:00 PM 64.4 °F - 62.6 °F 94% 29.72 in 15.0 mi North 2.3 mph - N/A   Mostly Cloudy
9:00 PM 64.4 °F - 62.6 °F 94% 29.70 in 15.0 mi Calm Calm - N/A   Overcast